Regional Weather Roundup
Issued by NWS Midland/Odessa, TX

Skip options and go directly to product.
Home | Oldest Version | Next Version | Current Version | All | Text Only | Save Text | Print | Product List | Glossary On

Skip product version selection by date and time.   
628
ASUS44 KMAF 270010
RWRMAF
MIDLAND AREA WEATHER ROUNDUP
NATIONAL WEATHER SERVICE MIDLAND TX
700 PM CDT TUE MAY 26 2015

...IN SOUTHWEST TEXAS AND SOUTHEAST NEW MEXICO...

CITY           SKY/WX    TMP DP  RH WIND       PRES   REMARKS
ALPINE         SUNNY     87  21   9 SW6       30.07S
ANDREWS        FAIR      85  37  17 S8        29.96F
ARTESIA        SUNNY     88  32  13 SW10G20   29.94S
BIG SPRING     MOSUNNY   89  40  18 W15       29.94S
CARLSBAD       SUNNY     90  35  14 SW12      29.91F
DRYDEN         NOT AVBL
FORT STOCKTON  MOSUNNY   87  45  23 N16       29.92S
GUAD PASS        N/A    N/A N/A N/A MISG        N/A
HOBBS          SUNNY     81  39  22 CALM      29.99F
MARFA          SUNNY     82  25  12 SW8       30.07S
MIDLAND AIRPK  MOSUNNY   89  33  13 W7        29.94F
MIDLAND INTL   MOSUNNY   88  36  15 W7        29.93F
ODESSA         MOSUNNY   87  33  14 SW5       29.95F
PECOS          SUNNY     89  39  16 CALM      29.90F
PRESIDIO       FAIR      94  19   6 W6        29.88F
SEMINOLE       MOSUNNY   85  40  20 W7        29.98S
SNYDER         SUNNY     85  52  32 W9        29.91F
WINK           MOSUNNY   89  36  15 S7        29.91F
$$
...OTHER STATIONS IN TEXAS...

CITY           SKY/WX    TMP DP  RH WIND       PRES   REMARKS
ABILENE        SUNNY     89  61  38 SW12      29.87S
AMARILLO       MOSUNNY   76  53  44 E3        29.99S
AUSTIN         MOSUNNY   86  73  65 SE16      29.90F
BROWNSVILLE    CLOUDY    84  77  79 SE14      29.90R
CORPUS CHRISTI PTSUNNY   84  76  76 SE14      29.91F
DALLAS FTW     CLOUDY    76  69  79 NE7       29.95R
DEL RIO        CLOUDY    83  73  72 E7        29.85R
EL PASO        MOSUNNY   85  22  10 S8        29.97F
HOUSTON INT    PTSUNNY   80  73  79 SE15      29.99F
LUBBOCK        PTSUNNY   82  43  25 SW12      29.95F
SAN ANGELO     CLOUDY    82  66  58 S6        29.90R
SAN ANTONIO    CLOUDY    86  72  62 S18       29.92F
WACO           PTSUNNY   84  71  65 SE10      29.92S
WICHITA FALLS  NOT AVBL
$$
...OTHER LOCATIONS IN NEW MEXICO...

CITY           SKY/WX    TMP DP  RH WIND       PRES   REMARKS
ALAMAGORDO     MOSUNNY   82  32  16 W6        30.01F
ALBUQUERQUE    MOSUNNY   75  38  26 S8        30.05F
CANNON AFB     NOT AVBL
CLOVIS         MOSUNNY   77  46  33 SW7         N/A
HOLLOMAN AFB   SUNNY     82  34  17 CALM      29.98F
ROSWELL        PTSUNNY   85  38  18 SW7       29.94F
RUIDOSO        PTSUNNY   70  32  24 W9G16     30.18S
SANTA FE       MOSUNNY   73  33  23 SW16G25   30.08S
TRUTH OR CONSE SUNNY     81  26  13 SE12      29.99F
TUCUMCARI      SUNNY     79  46  31 SE6       29.98F
$$

USA.gov is the U.S. government's official web portal to all federal, state and local government web resources and services.